SRG336A EGCK-EGCK

Flight info

Callsign SRG336A
Flight time N/A
Altitude 4800
Route OAT
Aircraft A139/L-V/N

Departure

Time 2026-04-28 21:41
Airport Caernarfon Airport (EGCK)

Arrival

Time N/A
Airport Caernarfon Airport (EGCK)
Time Latitude Longitude Altitude Speed Heading
2026-04-28 21:39 53.10114 -4.33535 12 ft 0 kts 204°
2026-04-28 21:40 53.10112 -4.33548 35 ft 5 kts 206°
2026-04-28 21:40 53.10125 -4.33573 245 ft 17 kts 215°
2026-04-28 21:40 53.10161 -4.33618 620 ft 14 kts 326°
2026-04-28 21:40 53.10210 -4.33636 912 ft 42 kts 39°
2026-04-28 21:41 53.10724 -4.33155 865 ft 117 kts 40°
2026-04-28 21:41 53.11468 -4.32243 878 ft 141 kts 41°
2026-04-28 21:41 53.12231 -4.31197 1174 ft 141 kts 41°
2026-04-28 21:41 53.12987 -4.30176 1436 ft 138 kts 44°
2026-04-28 21:42 53.13753 -4.29224 1491 ft 137 kts 40°
2026-04-28 21:42 53.14530 -4.28263 1466 ft 139 kts 41°
2026-04-28 21:42 53.15294 -4.27287 1435 ft 139 kts 43°
2026-04-28 21:42 53.16034 -4.26242 1413 ft 140 kts 43°
2026-04-28 21:43 53.16793 -4.25165 1409 ft 142 kts 44°
2026-04-28 21:43 53.17547 -4.24110 1453 ft 140 kts 43°
2026-04-28 21:43 53.18270 -4.23038 1457 ft 138 kts 50°
2026-04-28 21:43 53.18910 -4.21850 1454 ft 138 kts 50°
2026-04-28 21:44 53.19559 -4.20644 1440 ft 139 kts 51°
2026-04-28 21:44 53.20210 -4.19445 1439 ft 138 kts 50°
2026-04-28 21:44 53.20851 -4.18274 1461 ft 137 kts 51°
2026-04-28 21:44 53.21499 -4.17099 1445 ft 137 kts 51°
2026-04-28 21:45 53.22148 -4.15923 1436 ft 137 kts 50°
2026-04-28 21:45 53.22754 -4.14709 1422 ft 135 kts 57°
2026-04-28 21:45 53.23305 -4.13427 1422 ft 136 kts 56°
2026-04-28 21:45 53.23870 -4.12117 1413 ft 138 kts 56°
2026-04-28 21:46 53.24427 -4.10830 1455 ft 137 kts 56°
2026-04-28 21:46 53.24983 -4.09553 1453 ft 136 kts 56°
2026-04-28 21:46 53.25481 -4.08195 1445 ft 136 kts 62°
2026-04-28 21:46 53.25952 -4.06825 1433 ft 136 kts 62°
2026-04-28 21:47 53.26427 -4.05460 1434 ft 136 kts 62°
2026-04-28 21:47 53.26819 -4.04028 1425 ft 135 kts 75°
2026-04-28 21:47 53.27000 -4.02493 1432 ft 134 kts 77°
2026-04-28 21:47 53.27190 -4.00961 1439 ft 134 kts 77°
2026-04-28 21:48 53.27384 -3.99426 1443 ft 133 kts 78°
2026-04-28 21:48 53.27572 -3.97891 1430 ft 135 kts 78°
2026-04-28 21:48 53.27759 -3.96367 1443 ft 134 kts 77°
2026-04-28 21:48 53.27950 -3.94826 1417 ft 135 kts 78°
2026-04-28 21:49 53.28140 -3.93282 1432 ft 135 kts 77°
2026-04-28 21:49 53.28330 -3.91740 1428 ft 135 kts 78°
2026-04-28 21:49 53.28519 -3.90190 1430 ft 135 kts 77°
2026-04-28 21:49 53.28706 -3.88680 1444 ft 132 kts 77°
2026-04-28 21:50 53.28892 -3.87174 1443 ft 133 kts 78°
2026-04-28 21:50 53.29084 -3.85654 1420 ft 133 kts 77°
2026-04-28 21:50 53.29282 -3.84120 1413 ft 134 kts 77°
2026-04-28 21:50 53.29482 -3.82602 1433 ft 133 kts 77°
2026-04-28 21:51 53.29683 -3.81064 1440 ft 134 kts 77°
2026-04-28 21:51 53.29877 -3.79538 1403 ft 136 kts 77°
2026-04-28 21:51 53.30070 -3.77988 1440 ft 135 kts 77°
2026-04-28 21:51 53.30262 -3.76451 1452 ft 135 kts 77°
2026-04-28 21:52 53.30400 -3.74894 1442 ft 137 kts 84°
2026-04-28 21:52 53.30379 -3.73311 1447 ft 136 kts 94°
2026-04-28 21:52 53.30257 -3.71728 1435 ft 136 kts 93°
2026-04-28 21:52 53.30135 -3.70162 1360 ft 136 kts 93°
2026-04-28 21:53 53.30008 -3.68606 1268 ft 135 kts 93°
2026-04-28 21:53 53.29875 -3.67020 1140 ft 137 kts 93°
2026-04-28 21:53 53.29811 -3.65442 1028 ft 137 kts 86°
2026-04-28 21:53 53.29799 -3.63855 916 ft 137 kts 86°
2026-04-28 21:54 53.29786 -3.62244 810 ft 137 kts 86°
2026-04-28 21:54 53.29773 -3.60663 683 ft 139 kts 86°
2026-04-28 21:54 53.29862 -3.59059 574 ft 138 kts 77°
2026-04-28 21:54 53.30109 -3.57507 533 ft 138 kts 74°
2026-04-28 21:55 53.30447 -3.56043 617 ft 130 kts 61°
2026-04-28 21:55 53.30938 -3.54858 611 ft 119 kts 59°
2026-04-28 21:55 53.31399 -3.53742 582 ft 114 kts 59°
2026-04-28 21:55 53.31798 -3.52608 540 ft 112 kts 60°
2026-04-28 21:56 53.32184 -3.51456 521 ft 113 kts 60°
2026-04-28 21:56 53.32575 -3.50302 522 ft 113 kts 60°
2026-04-28 21:56 53.32908 -3.49129 545 ft 109 kts 66°
2026-04-28 21:56 53.33201 -3.47945 520 ft 108 kts 66°
2026-04-28 21:57 53.33418 -3.46744 543 ft 107 kts 73°
2026-04-28 21:57 53.33595 -3.45608 595 ft 96 kts 70°
2026-04-28 21:57 53.33777 -3.44550 489 ft 94 kts 69°
2026-04-28 21:57 53.33968 -3.43502 363 ft 94 kts 70°
2026-04-28 21:58 53.34193 -3.42500 378 ft 86 kts 62°
2026-04-28 21:58 53.34417 -3.41795 378 ft 57 kts 49°
2026-04-28 21:58 53.34490 -3.41204 233 ft 64 kts 111°
2026-04-28 21:58 53.34095 -3.41355 215 ft 78 kts 249°
2026-04-28 21:59 53.34248 -3.41572 550 ft 18 kts 168°
2026-04-28 21:59 53.34356 -3.41290 573 ft 41 kts 60°
2026-04-28 21:59 53.34555 -3.40999 335 ft 37 kts 46°